Regional Weather Roundup
Issued by NWS Northern Indiana

Home | Current Version | Previous Version | Graphics & Text | Print | Product List | Glossary On
Versions: 1 2 3 4 5 6 7 8 9 10 11 12 13 14 15 16 17 18 19 20 21 22 23 24 25 26 27 28 29 30 31 32 33 34 35 36 37 38 39 40 41 42 43 44 45 46 47 48 49 50
000
ASUS43 KIWX 261900
RWRIWX

KIWX WEATHER ROUNDUP
NATIONAL WEATHER SERVICE NORTHERN INDIANA
200 PM EST FRI DEC 26 2014

NOTE: "FAIR" INDICATES FEW OR NO CLOUDS BELOW 12,000 FEET WITH NO
SIGNIFICANT WEATHER AND/OR OBSTRUCTIONS TO VISIBILITY.

* THESE STATIONS ARE NOT UNDER NWS QUALITY CONTROL. THEY ALSO MAY NOT
  REPORT WEATHER SUCH AS PRECIPITATION OR FOG.

INZ001>027-262000-
NORTHERN INDIANA

CITY           SKY/WX    TMP DP  RH WIND       PRES   REMARKS
GARY*          PTSUNNY   50  34  53 SW13      30.02F
SOUTH BEND     FAIR      49  38  65 SW14      30.05
ELKHART*       FAIR      50  36  57 S12       30.05F
GOSHEN         FAIR      48  38  68 SW12      30.05F
ANGOLA*        SUNNY     46  37  71 SW12      30.05F
FORT WAYNE     PTSUNNY   48  40  73 SW17      30.09F
PERU/GRISSOM   FAIR      51  46  85 SW16G23   30.07F

$$
INZ028>050-262000-
CENTRAL INDIANA

CITY           SKY/WX    TMP DP  RH WIND       PRES   REMARKS
LAFAYETTE      FAIR      50  40  68 SW10G18   30.07F
KOKOMO*        FAIR     N/A N/A N/A SW17      30.08F
MUNCIE*        FAIR      48  38  68 SW15      30.11F
INDIANAPOLIS   PTSUNNY   51  39  63 S13       30.10F

$$
MIZ043>046-050>051-056>058-064>065-071>073-077>080-262000-
SOUTHWEST LOWER MICHIGAN

CITY           SKY/WX    TMP DP  RH WIND       PRES   REMARKS
BATTLE CREEK   FAIR      47  36  65 SW13      30.03F
BENTON HARBOR  FAIR      50  37  61 SW16      30.02F
COLDWATER*     FAIR      48  36  64 SW9G20    30.04S
HILLSDALE*     FAIR      46  38  73 SW10      30.05S
HOLLAND        FAIR      47  36  65 SW16G23   30.02F
GRAND RAPIDS   FAIR      48  36  63 SW13      30.01F
KALAMAZOO      FAIR      49  36  61 SW13      30.04S
STURGIS*       FAIR      46  39  76 SW13      30.04S
THREE RIVERS*  FAIR      49  37  65 SW13      30.04S

$$
OHZ001>008-015>018-024>025-262000-
NORTHWEST OHIO

CITY           SKY/WX    TMP DP  RH WIND       PRES   REMARKS
DEFIANCE       FAIR      47  38  71 SW15      30.10F
FINDLAY        FAIR      49  38  65 SW18      30.11F
TOLEDO EXPRESS FAIR      46  36  68 SW14      30.09F
TOLEDO METCALF FAIR      48  36  63 SW18      30.10F
LIMA           FAIR      48  38  68 SW14G22   30.12F

$$
AND FOR LAKE MICHIGAN COASTAL AND OPEN LAKE BUOY OBSERVATIONS

STATION/POSITION TEMP    WIND        PRES    VSBY  WAVE
                 AIR SEA DIR/SP/G                  HT/PER
                 (F)     (DEG/KT/KT) (MB)    (MI)  (FT/S)
CALUMET HARBOR    48     200/  9/ 19 1015.0F
MICHIGAN CITY     47     190/ 15/ 20   N/A
SAINT JOSEPH      44     180/  9/ 14 1016.9F
MICHIGAN CITY CG     36                N/A       6   0

$$
&&


USA.gov is the U.S. government's official web portal to all federal, state and local government web resources and services.